Flag for Nepal Weather past 2 weeks in Kathmandu, Nepal

Now
66 °F

Partly cloudy.


Feels Like: 66 °F
Forecast: 59 / 83 °F
Wind: N/A

Location: Kathmandu Airport

Current Time: Sep 15, 2014 at 7:57:44 AM

Latest Report: Sep 15, 2014 at 5:35 AM


Visibility: 4 mi

Pressure: 29.89 "Hg

Humidity: 100%

Dew point: 66 °F

Location of KathmanduLocation

Historic Weather in Kathmandu — Graph

°F

Kathmandu temperature yesterday

Maximum temperature yesterday: 75 °F (at 10:35 AM)
Minimum temperature yesterday: 68 °F (at 2:35 AM)
Average temperature yesterday: 70 °F

Past Weeks' High & Low Weather Summary

 TemperatureHumidityPressure
High86 °F (Sep 2, 12:35 PM)100% (Aug 31, 6:35 AM)30.04 "Hg (Aug 31, 6:35 AM)
Low66 °F (Sep 2, 5:35 AM)55% (Aug 31, 1:35 PM)29.77 "Hg (Sep 5, 2:35 PM)
Average73 °F85%29.92 "Hg
* Reported Aug 31 5:35 AM — Sep 15 5:35 AM, Kathmandu, Weather by CustomWeather, © 2014

Note: Actual official high and low records may vary slightly from our data, if they occured in-between our weather recording intervals... More about our weather records

Advertising

Kathmandu weather history for previous 24 hours

 ConditionsComfort  
Time TempWeatherWind HumidityBarometerVisibility
5:35 AM
Sep 15
66 °FPartly cloudy.N/A100%29.89 "Hg4 mi
4:35 AM66 °FPartly cloudy.No wind100%29.89 "Hg4 mi
3:35 AM66 °FPartly cloudy.No wind100%29.89 "Hg4 mi
2:35 AM66 °FPartly cloudy.No wind100%29.92 "Hg4 mi
1:35 AM68 °FPartly cloudy.No wind94%29.95 "Hg4 mi
12:35 AM68 °FMostly cloudy.3 mph94%29.95 "Hg4 mi
11:35 PM
Sep 14
68 °FMild.No wind94%29.98 "Hg4 mi
10:35 PM70 °FPartly cloudy.No wind83%29.98 "Hg4 mi
9:35 PM68 °FPartly cloudy.No wind94%29.98 "Hg4 mi
8:35 PM68 °FPartly cloudy.3 mph94%29.95 "Hg4 mi
7:35 PM68 °FPartly cloudy.3 mph94%29.92 "Hg4 mi
5:35 PM72 °FBroken clouds.No wind83%29.89 "Hg5 mi
3:35 PM72 °FDrizzle. Broken clouds.3 mph88%29.89 "Hg5 mi
2:35 PM72 °FDrizzle. Broken clouds.5 mph88%29.92 "Hg5 mi
1:35 PM70 °FLight rain. More clouds than sun.5 mph94%29.95 "Hg4 mi
12:35 PM70 °FLight rain. Broken clouds.6 mph94%29.98 "Hg4 mi
11:35 AM73 °FMore clouds than sun.No wind78%29.98 "Hg4 mi
10:35 AM75 °FMore clouds than sun.3 mph74%29.98 "Hg4 mi
8:35 AM70 °FFog.3 mph94%29.98 "Hg3 mi
7:35 AM68 °FSprinkles. More clouds than sun.No wind100%29.95 "Hg2 mi
Weather by CustomWeather, © 2014

See weather overviewHow to use our weather pages